This is the latest recevied weather packets stored in our database for station/object IZ7EXI-13. If no packets are shown the sender has not sent any weather packets the latest 10 day(s).
| Time | Temp. | Humidity | Pressure | Rain* | Wind** | Luminosity | Snow |
|---|---|---|---|---|---|---|---|
| 1788468795 | 25° C | 66% | 1019.2 hPa | - | - | - | - |
| 1788467927 | 25.56° C | 65% | 1019.1 hPa | - | - | - | - |
| 1788467895 | 25.56° C | 65% | 1019.1 hPa | - | - | - | - |
| 1788467029 | 25.56° C | 63% | 1019 hPa | - | - | - | - |
| 1788466995 | 25.56° C | 63% | 1019 hPa | - | - | - | - |
| 1788466094 | 26.11° C | 61% | 1018.9 hPa | - | - | - | - |
| 1788465229 | 26.67° C | 58% | 1018.9 hPa | - | - | - | - |
| 1788465194 | 26.67° C | 58% | 1018.9 hPa | - | - | - | - |
| 1788464329 | 26.67° C | 55% | 1019.1 hPa | - | - | - | - |
| 1788464294 | 26.67° C | 55% | 1019.1 hPa | - | - | - | - |
| 1788463431 | 27.22° C | 52% | 1018.9 hPa | - | - | - | - |
| 1788463394 | 27.22° C | 52% | 1018.9 hPa | - | - | - | - |
| 1788462964 | 27.22° C | 49% | 1018.7 hPa | - | - | - | - |
| 1788462493 | 27.22° C | 49% | 1018.7 hPa | - | - | - | - |
| 1788461576 | 28.33° C | 46% | 1018.6 hPa | - | - | - | - |
| 1788460676 | 28.89° C | 48% | 1018.4 hPa | - | - | - | - |
| 1788459776 | 29.44° C | 51% | 1018.2 hPa | - | - | - | - |
| 1788458909 | 29.44° C | 57% | 1017.9 hPa | - | - | - | - |
| 1788458875 | 29.44° C | 57% | 1017.9 hPa | - | - | - | - |
| 1788458011 | 29.44° C | 58% | 1017.7 hPa | - | - | - | - |
| 1788457975 | 29.44° C | 58% | 1017.7 hPa | - | - | - | - |
| 1788457111 | 30° C | 57% | 1017.6 hPa | - | - | - | - |
| 1788457075 | 30° C | 57% | 1017.6 hPa | - | - | - | - |
| 1788456175 | 30.56° C | 54% | 1017.5 hPa | - | - | - | - |
| 1788455274 | 32.22° C | 50% | 1017.4 hPa | - | - | - | - |
* Rain since midnight (hover to see other rain measurements)
** Current wind speed in m/s (hover to see current wind gust speed)